Simultaneous Nadir Overpasses (SNOs) Predictions

Prediction of SNOs between GOES-14 and NPP Satellite Orbit:

Table of predicted SNOs for the next 14.0 days since TLE Epoch: 7/23/2022
Index Date Time (GOES-14) GOES-14 Lat,Lon NPP Lat,Lon Distance(km) Time Diff (sec)
1 07/23/2022 20:11:36 0.30,-104.75 1.07,-101.39 384.03 80
2 07/25/2022 08:33:24 -0.34,-104.46 0.15,-106.65 250.25 80
3 07/26/2022 08:14:41 -0.33,-104.45 -0.88,-102.13 265.24 80
4 07/27/2022 20:33:59 0.36,-104.73 -0.27,-107.44 310.34 80
5 07/28/2022 20:17:55 0.35,-104.72 0.77,-102.92 206.00 80
6 07/30/2022 08:39:44 -0.38,-104.44 0.45,-108.19 426.34 80
7 07/31/2022 08:18:19 -0.36,-104.43 -0.53,-103.65 89.23 80
8 08/01/2022 20:40:19 0.39,-104.70 -0.55,-108.98 487.61 80
9 08/02/2022 20:24:14 0.38,-104.70 0.43,-104.44 29.05 80
10 08/05/2022 08:27:19 -0.40,-104.43 -0.25,-105.19 85.88 80
